Estación municipal de Susqueda - St. Martí Sacalm (La Selva, )

Consulta los datos en tiempo real de la estación municipal de Susqueda - St. Martí Sacalm





Hora UTC 19:40
Temperatura 27.5 ºC
Humedad 52.6 %
Presión 1024.1 hPa
Pluja 0.0 mm
Velocidad viento 6.0 km/h
Dirección viento SSW
Radiación solar 0.1 W/m²

Datos diarios 2026-09-04



Hora UTC (invierno +1h; verano +2h)
Temperatura (ºC) Humedad (%) Presión (hPa) Velocidad viento (km/h) Precipitación (mm) Radiación solar (W/m²)
Hora UTC Aire Humedad Presión Vel. Dir. Vel. Max Dir. Intent. máx 5 min. Rad. Sol.
00:05 22.8 69.5 1024.7 12.3 SW 12.3 SW 0.0 0.1
00:10 22.6 69.9 1024.7 11.8 SW 14.8 SW 0.0 0.1
00:15 22.3 71.1 1024.7 11.4 SW 13.4 SW 0.0 0.2
00:20 22.0 72.1 1024.7 10.7 SSW 13.4 SW 0.0 0.1
00:25 21.8 72.8 1024.6 11.5 SW 13.8 SSW 0.0 0.1
00:30 21.9 72.8 1024.6 10.7 SW 13.8 SW 0.0 0.1
00:35 21.8 73.4 1024.6 10.9 SW 13.4 SW 0.0 0.1
00:40 22.0 73.2 1024.5 11.0 SW 12.7 SW 0.0 0.1
00:45 22.1 73.2 1024.5 10.6 SW 12.4 SW 0.0 0.2
00:50 22.1 73.3 1024.4 8.9 SW 11.3 SW 0.0 0.2
00:55 22.1 73.1 1024.4 9.6 SSW 12.0 SW 0.0 0.1
01:00 22.1 72.9 1024.3 8.5 SSW 10.3 SSW 0.0 0.1
01:05 22.0 73.2 1024.3 8.0 SSW 10.3 SW 0.0 0.1
01:10 21.9 73.3 1024.3 7.2 SSW 10.3 SW 0.0 0.1
01:15 21.9 73.4 1024.2 9.0 SW 12.7 SW 0.0 0.1
01:20 22.0 73.1 1024.2 8.9 SW 11.3 SSW 0.0 0.1
01:25 21.9 73.4 1024.2 9.7 SW 12.7 SW 0.0 0.2
01:30 21.9 73.6 1024.2 10.7 SW 12.7 SW 0.0 0.1
01:35 21.8 74.1 1024.2 8.4 SSW 10.3 SSW 0.0 0.1
01:40 21.8 74.4 1024.1 8.8 SSW 11.0 SW 0.0 0.1
01:45 21.7 74.4 1024.1 8.1 SSW 11.3 SSW 0.0 0.1
01:50 21.6 74.6 1024.1 8.4 SW 10.3 SSW 0.0 0.1
01:55 21.7 74.1 1024.0 7.9 SW 9.9 SW 0.0 0.2
02:00 21.8 73.7 1024.0 8.3 SW 9.9 SW 0.0 0.1
02:05 21.8 73.5 1024.0 7.8 SW 9.2 SSW 0.0 0.2
02:10 22.0 72.7 1023.9 8.3 SW 10.6 SW 0.0 0.1
02:15 22.1 72.5 1023.9 9.9 SW 12.0 SW 0.0 0.1
02:20 22.0 73.0 1023.9 9.2 SW 11.3 SW 0.0 0.1
02:25 21.9 73.5 1023.8 9.3 SSW 11.0 SSW 0.0 0.1
02:30 21.8 74.1 1023.8 9.4 SW 11.7 SW 0.0 0.1
02:35 21.7 73.8 1023.8 9.6 SW 13.1 SW 0.0 0.1
02:40 21.7 73.7 1023.8 9.8 SW 11.7 SW 0.0 0.2
02:45 21.7 73.8 1023.8 10.6 SW 13.1 SW 0.0 0.1
02:50 21.8 73.8 1023.8 11.2 SW 13.4 SW 0.0 0.1
02:55 21.7 74.0 1023.8 10.0 SW 12.0 SW 0.0 0.1
03:00 21.6 74.7 1023.8 10.2 SW 12.7 SW 0.0 0.1
03:05 21.5 75.3 1023.8 9.5 SW 11.3 SW 0.0 0.1
03:10 21.5 75.5 1023.8 8.2 SSW 9.9 SSW 0.0 0.1
03:15 21.5 75.6 1023.7 8.5 SSW 11.7 SSW 0.0 0.1
03:20 21.4 75.7 1023.7 9.7 SSW 12.4 SSW 0.0 0.1
03:25 21.1 76.8 1023.7 12.9 SW 15.9 SW 0.0 0.1
03:30 21.2 76.7 1023.6 11.8 SW 14.1 SW 0.0 0.1
03:35 21.1 77.0 1023.6 11.7 SW 14.1 SW 0.0 0.1
03:40 21.2 77.2 1023.5 10.6 SSW 12.7 SW 0.0 0.1
03:45 21.1 78.2 1023.5 10.9 SW 13.1 SW 0.0 0.1
03:50 21.0 78.9 1023.5 11.1 SW 14.1 SW 0.0 0.1
03:55 20.9 79.1 1023.4 10.2 SW 12.7 SW 0.0 0.2
04:00 20.9 78.9 1023.4 11.9 SW 14.5 SW 0.0 0.1
04:05 20.9 78.8 1023.4 11.3 SW 14.1 SW 0.0 0.1
04:10 20.8 79.2 1023.4 10.8 SW 13.4 SSW 0.0 0.2
04:15 21.1 77.6 1023.4 10.0 SW 12.4 SW 0.0 0.1
04:20 21.3 76.5 1023.3 9.5 SW 11.7 SW 0.0 0.1
04:25 21.2 77.5 1023.3 10.3 SSW 12.0 SW 0.0 0.1
04:30 21.1 78.2 1023.3 10.3 SSW 12.4 SSW 0.0 0.1
04:35 21.2 77.8 1023.3 9.1 SW 11.3 SW 0.0 0.1
04:40 21.2 77.9 1023.3 7.1 SSW 9.9 SW 0.0 0.1
04:45 21.2 78.4 1023.3 9.0 SSW 11.3 SSW 0.0 0.1
04:50 21.3 77.3 1023.3 8.7 SSW 11.3 SSW 0.0 0.2
04:55 21.3 76.2 1023.3 10.6 SW 13.8 SSW 0.0 0.2
05:00 21.4 76.1 1023.3 9.3 SSW 13.1 SSW 0.0 0.5
05:05 21.2 76.5 1023.3 9.9 SSW 13.1 SW 0.0 1.1
05:10 21.2 76.8 1023.3 9.8 SW 12.4 SW 0.0 2.0
05:15 21.3 75.4 1023.2 9.6 SW 11.7 SW 0.0 3.9
05:20 21.4 75.1 1023.2 9.6 SSW 11.0 SSW 0.0 7.9
05:25 21.5 74.7 1023.1 10.5 SSW 12.4 SW 0.0 13.0
05:30 21.6 74.7 1023.1 9.6 SW 11.7 SW 0.0 20.9
05:35 21.4 75.4 1023.0 9.9 SW 11.7 SW 0.0 30.5
05:40 21.4 75.7 1023.0 9.9 SW 11.7 SW 0.0 41.8
05:45 21.4 75.5 1023.0 10.2 SW 12.7 SW 0.0 52.7
05:50 21.5 74.4 1023.1 11.0 SW 13.1 SW 0.0 64.8
05:55 21.8 72.8 1023.1 11.1 SW 12.7 SW 0.0 78.5
06:00 21.8 72.4 1023.1 11.1 SW 13.4 SW 0.0 92.6
06:05 21.8 72.7 1023.2 10.7 SSW 12.7 SW 0.0 106.3
06:10 21.7 72.9 1023.1 11.8 SSW 14.8 SW 0.0 120.0
06:15 21.9 72.3 1023.2 12.3 SSW 14.8 SW 0.0 134.5
06:20 21.9 72.6 1023.2 12.4 SW 15.2 SW 0.0 149.2
06:25 21.8 73.1 1023.2 11.2 SSW 14.1 SW 0.0 164.7
06:30 21.8 72.7 1023.3 10.8 SSW 13.4 SSW 0.0 180.7
06:35 21.8 71.4 1023.3 10.3 SSW 13.8 SSW 0.0 196.4
06:40 22.0 70.0 1023.3 11.1 SW 14.5 SW 0.0 212.7
06:45 22.3 69.2 1023.3 10.1 SW 13.8 SW 0.0 230.0
06:50 22.5 68.5 1023.3 9.3 SW 13.4 SW 0.0 247.0
06:55 22.9 66.6 1023.3 8.8 SW 11.7 SSW 0.0 263.3
07:00 23.1 65.7 1023.3 8.9 SW 12.4 WSW 0.0 279.5
07:05 23.5 63.7 1023.3 8.4 SW 12.4 SW 0.0 295.5
07:10 23.9 61.5 1023.3 9.2 SW 12.4 WSW 0.0 311.6
07:15 24.1 60.2 1023.4 10.2 SW 13.4 SSW 0.0 327.6
07:20 24.3 59.7 1023.4 9.6 SW 13.8 SW 0.0 343.8
07:25 24.4 59.2 1023.4 10.2 SW 13.1 SW 0.0 359.2
07:30 24.5 59.0 1023.4 9.3 SW 12.0 SW 0.0 374.8
07:35 24.7 59.1 1023.5 8.5 SW 12.0 SW 0.0 390.6
07:40 24.8 58.7 1023.5 8.7 SW 12.7 SW 0.0 406.3
07:45 24.8 59.0 1023.5 8.6 SW 11.3 SW 0.0 421.7
07:50 24.9 58.8 1023.5 8.9 SW 12.4 SW 0.0 436.9
07:55 25.0 58.6 1023.5 7.9 SW 11.7 SW 0.0 452.3
08:00 25.3 58.4 1023.5 7.2 SW 11.0 SW 0.0 467.2
08:05 25.5 58.3 1023.5 8.2 SW 11.7 SW 0.0 482.4
08:10 25.6 57.8 1023.6 5.9 SW 9.9 SW 0.0 497.0
08:15 25.6 58.1 1023.6 4.5 SW 10.6 WSW 0.0 511.5
08:20 25.9 57.6 1023.6 2.8 SW 7.4 SW 0.0 525.6
08:25 26.0 58.9 1023.7 0.3 NNW 3.2 NNW 0.0 539.7
08:30 25.9 59.1 1023.6 2.4 N 6.7 N 0.0 554.2
08:35 25.6 59.8 1023.7 5.3 NNE 9.2 NNE 0.0 567.9
08:40 25.7 59.2 1023.8 5.5 NNE 10.6 NNE 0.0 579.9
08:45 25.8 58.6 1023.8 4.5 NNE 10.3 NNE 0.0 592.9
08:50 26.0 56.7 1023.8 4.2 NE 9.5 NE 0.0 605.7
08:55 26.2 55.1 1023.9 5.0 NNE 13.4 NE 0.0 618.0
09:00 26.0 55.4 1023.9 9.2 NNE 15.2 NNE 0.0 629.5
09:05 26.1 55.2 1024.0 4.9 NE 13.1 NNE 0.0 641.8
09:10 26.5 53.9 1024.0 5.0 NNE 12.4 NE 0.0 653.4
09:15 26.4 53.6 1024.1 7.0 NNE 12.4 NNE 0.0 664.3
09:20 26.6 52.3 1024.1 6.2 NNE 11.0 NNE 0.0 675.7
09:25 26.4 51.6 1024.1 8.9 NNE 15.9 NNE 0.0 685.7
09:30 26.5 51.0 1024.1 7.5 NNE 14.5 NNE 0.0 694.1
09:35 26.8 50.3 1024.2 6.0 NNE 12.4 N 0.0 590.3
09:40 27.3 49.2 1024.2 6.4 NE 13.4 ENE 0.0 714.8
09:45 27.3 49.2 1024.2 5.0 NNE 11.7 N 0.0 723.6
09:50 27.5 48.9 1024.2 6.1 NE 15.9 NE 0.0 732.0
09:55 27.7 48.1 1024.2 6.2 NE 13.8 ENE 0.0 741.2
10:00 27.6 48.4 1024.1 7.4 NNE 15.9 NE 0.0 748.6
10:05 27.8 47.5 1024.1 7.8 NE 14.5 NNE 0.0 754.8
10:10 28.2 46.5 1024.1 7.9 NE 16.2 NNE 0.0 762.2
10:15 27.9 46.8 1024.1 7.5 NE 15.2 NNE 0.0 769.8
10:20 28.1 46.0 1024.1 6.2 NE 14.5 NE 0.0 776.7
10:25 28.1 45.9 1024.1 5.6 NNE 13.4 NE 0.0 783.4
10:30 27.7 46.7 1024.0 5.7 NNE 12.4 NNE 0.0 788.3
10:35 28.8 43.9 1024.0 2.5 E 7.8 SE 0.0 794.5
10:40 29.5 42.4 1024.0 0.6 WSW 4.2 SW 0.0 802.0
10:45 30.1 40.7 1024.0 1.5 W 7.4 WSW 0.0 805.0
10:50 30.4 40.1 1023.9 3.1 ESE 11.0 S 0.0 808.0
10:55 30.6 39.2 1023.9 5.4 SSE 9.5 SSE 0.0 811.0
11:00 30.6 39.2 1023.8 2.6 S 8.5 WSW 0.0 815.0
11:05 30.7 38.7 1023.8 2.0 W 9.5 SW 0.0 817.0
11:10 31.0 38.4 1023.7 2.6 ENE 10.3 NE 0.0 822.0
11:15 31.5 37.5 1023.7 4.0 E 8.8 ENE 0.0 826.0
11:20 32.0 36.9 1023.7 1.0 ENE 7.4 N 0.0 827.0
11:25 32.0 37.1 1023.6 5.2 NE 12.0 NE 0.0 828.0
11:30 31.5 38.0 1023.6 9.1 NNE 17.3 NNE 0.0 825.0
11:35 31.1 38.9 1023.5 7.8 NE 17.0 NNE 0.0 824.0
11:40 31.4 38.2 1023.6 9.2 ENE 17.3 NE 0.0 810.0
11:45 31.9 37.5 1023.5 8.2 ENE 18.4 NNE 0.0 821.0
11:50 31.8 37.8 1023.5 7.0 NE 15.9 N 0.0 821.0
11:55 32.0 37.8 1023.5 5.1 NE 15.9 NE 0.0 819.0
12:00 32.3 36.9 1023.6 4.1 ENE 11.3 ENE 0.0 821.0
12:05 32.0 37.5 1023.5 8.6 NNE 20.5 NNE 0.0 819.0
12:10 31.9 37.7 1023.4 10.3 NNE 18.4 NNE 0.0 815.0
12:15 32.1 37.6 1023.5 9.5 ENE 16.6 ENE 0.0 810.0
12:20 32.6 36.4 1023.5 9.8 ENE 21.2 E 0.0 808.0
12:25 32.4 36.7 1023.4 6.7 ENE 16.6 NNE 0.0 805.0
12:30 32.9 36.1 1023.4 7.3 E 14.8 ENE 0.0 774.2
12:35 32.9 36.1 1023.4 8.6 ENE 16.2 ESE 0.0 788.0
12:40 32.6 36.0 1023.4 7.3 NNE 18.4 NE 0.0 790.1
12:45 32.0 36.2 1023.3 10.7 NE 19.8 NNE 0.0 784.3
12:50 31.8 35.6 1023.3 13.6 NE 25.1 ENE 0.0 780.2
12:55 31.9 35.9 1023.2 10.0 NNE 23.3 NNE 0.0 776.1
13:00 31.5 35.9 1023.2 14.6 NNE 28.6 NE 0.0 770.3
13:05 31.5 36.1 1023.2 9.8 ENE 23.3 NE 0.0 762.6
13:10 32.7 34.3 1023.2 9.5 ENE 19.8 E 0.0 755.4
13:15 32.9 33.8 1023.2 12.5 NE 26.8 NE 0.0 739.0
13:20 32.2 34.8 1023.2 13.4 NE 23.3 E 0.0 720.0
13:25 32.3 35.6 1023.2 10.5 ENE 26.8 ESE 0.0 735.3
13:30 32.2 36.8 1023.1 12.8 NE 26.1 NE 0.0 722.4
13:35 32.1 37.7 1023.1 10.5 NE 22.2 ENE 0.0 712.9
13:40 31.9 38.4 1023.1 8.3 NNE 19.1 NNE 0.0 707.3
13:45 32.1 38.0 1023.1 6.4 NNE 17.7 NNE 0.0 697.8
13:50 32.2 37.2 1023.1 8.5 NNE 20.1 NNE 0.0 689.4
13:55 32.6 37.1 1023.1 9.7 NE 21.9 E 0.0 681.8
14:00 32.4 37.5 1023.1 10.2 ENE 21.9 ENE 0.0 671.6
14:05 32.9 36.8 1023.1 5.6 ENE 14.5 ENE 0.0 656.5
14:10 33.2 37.2 1023.1 7.2 ENE 18.4 ENE 0.0 546.4
14:15 33.3 36.6 1023.1 8.3 ENE 16.6 ENE 0.0 633.3
14:20 33.2 37.0 1023.0 8.8 ENE 20.5 E 0.0 619.9
14:25 33.1 36.9 1023.0 7.7 E 16.6 E 0.0 609.8
14:30 33.3 36.4 1022.9 6.9 ENE 19.8 E 0.0 599.5
14:35 33.0 37.3 1023.0 7.0 E 14.1 ENE 0.0 586.1
14:40 33.2 37.1 1023.0 5.8 E 19.4 ENE 0.0 572.5
14:45 33.3 36.9 1023.0 1.1 S 10.3 SSW 0.0 560.6
14:50 33.4 36.7 1023.0 2.4 SE 13.4 S 0.0 547.7
14:55 33.5 36.2 1023.0 6.8 SE 19.8 SE 0.0 533.6
15:00 33.0 37.2 1023.0 5.6 SE 14.1 SE 0.0 518.1
15:05 33.0 37.8 1023.0 6.0 SE 15.9 S 0.0 506.2
15:10 33.3 37.7 1022.9 3.2 E 13.8 SE 0.0 490.6
15:15 33.6 37.3 1022.9 4.9 E 13.8 ENE 0.0 476.7
15:20 33.0 37.8 1022.9 5.5 SE 12.0 SE 0.0 461.3
15:25 32.7 38.7 1022.9 7.5 ESE 16.2 SE 0.0 446.8
15:30 32.5 38.9 1022.9 8.1 SE 15.5 SSE 0.0 432.6
15:35 32.2 39.1 1022.9 7.5 SE 11.7 SSE 0.0 420.5
15:40 32.0 39.4 1022.9 9.1 SE 16.6 SSE 0.0 406.1
15:45 32.0 38.8 1022.9 5.3 SE 11.7 ESE 0.0 388.5
15:50 32.2 38.2 1022.9 6.1 SSE 15.2 SSE 0.0 370.8
15:55 31.8 39.1 1022.9 11.0 SSE 19.1 S 0.0 355.5
16:00 31.2 40.3 1022.9 9.8 SE 18.0 S 0.0 337.3
16:05 31.3 40.9 1022.9 4.5 SE 11.3 E 0.0 324.6
16:10 31.9 40.6 1022.9 3.8 E 10.3 ENE 0.0 312.1
16:15 31.7 42.2 1023.0 3.0 SSE 10.6 SE 0.0 294.7
16:20 31.5 43.3 1022.9 6.9 SE 12.0 SSE 0.0 280.3
16:25 31.2 43.2 1022.9 5.0 S 11.7 SSE 0.0 263.2
16:30 31.1 44.3 1023.0 4.7 S 11.0 SSE 0.0 249.0
16:35 31.0 44.9 1023.0 5.5 SSE 13.1 SSE 0.0 235.4
16:40 30.9 44.7 1022.9 5.5 SSE 13.1 SE 0.0 220.7
16:45 30.9 44.9 1022.9 3.9 SE 12.7 SSE 0.0 205.8
16:50 30.8 45.4 1022.9 2.8 SSE 10.3 SE 0.0 190.2
16:55 30.7 44.7 1022.9 6.4 SSE 13.1 SSE 0.0 176.1
17:00 30.4 44.1 1022.9 6.7 SSE 12.7 SSE 0.0 162.9
17:05 30.3 44.3 1022.9 4.8 SSE 11.3 SSE 0.0 150.2
17:10 30.3 43.9 1022.9 3.7 S 7.8 SSE 0.0 135.9
17:15 30.2 43.2 1022.9 3.6 S 12.7 S 0.0 122.8
17:20 30.1 43.5 1022.9 3.7 SSE 8.5 SSE 0.0 110.0
17:25 30.1 44.3 1023.0 0.9 S 5.0 SSE 0.0 96.2
17:30 30.2 44.5 1023.0 0.0 NNE 0.0 S 0.0 84.8
17:35 30.1 44.4 1023.1 0.0 NNE 0.0 SE 0.0 73.7
17:40 29.9 44.8 1023.1 0.0 NNE 0.0 SSE 0.0 62.4
17:45 29.6 44.8 1023.2 0.0 NNE 0.0 SSE 0.0 49.5
17:50 29.2 46.8 1023.2 0.0 NNE 0.0 SSW 0.0 37.8
17:55 28.9 48.2 1023.2 0.0 NNE 0.0 SW 0.0 20.1
18:00 28.7 48.1 1023.2 3.7 SSW 8.5 SW 0.0 15.2
18:05 28.7 47.9 1023.3 1.1 S 5.3 S 0.0 10.6
18:10 28.6 48.8 1023.3 0.0 NNE 0.0 SSW 0.0 5.9
18:15 28.3 49.6 1023.3 1.9 SSW 5.3 SSW 0.0 3.6
18:20 28.2 50.2 1023.3 4.6 SSW 6.7 S 0.0 2.2
18:25 28.1 50.5 1023.3 5.3 SSW 8.8 SSW 0.0 1.3
18:30 28.0 50.9 1023.3 4.4 SSW 7.1 SSW 0.0 0.7
18:35 27.9 51.4 1023.4 5.1 SSW 6.7 SSW 0.0 0.3
18:40 27.7 52.0 1023.4 5.2 SSW 6.7 SSW 0.0 0.2
18:45 27.6 52.3 1023.6 5.5 SW 8.1 SW 0.0 0.1
18:50 27.7 52.4 1023.7 6.2 SW 8.5 SW 0.0 0.1
18:55 27.8 52.4 1023.8 5.5 SW 7.4 SW 0.0 0.1
19:00 27.6 53.1 1023.8 5.5 SSW 6.7 SSW 0.0 0.1
19:05 27.5 53.3 1023.8 5.8 SSW 6.7 SSW 0.0 0.1
19:10 27.6 53.2 1023.9 4.9 SSW 6.0 SSW 0.0 0.1
19:15 27.5 53.4 1023.9 4.6 SW 6.0 SW 0.0 0.1
19:20 27.2 53.9 1024.0 4.2 SW 5.7 SW 0.0 0.1
19:25 27.2 53.9 1024.0 3.7 SW 5.3 SW 0.0 0.1
19:30 27.4 53.2 1024.0 2.9 SW 4.6 SW 0.0 0.1
19:35 27.5 52.6 1024.1 0.0 NNE 0.0 SSW 0.0 0.1
19:40 27.5 52.6 1024.1 6.0 SSW 8.1 SSW 0.0 0.1
Máxima 33.6 79.2 1024.7 14.6 NNE 28.6 NE 0.0 828.0
Mínima 20 33.8 1022.9
Total 0.0